ATS 1

operational
NORAD ID: 2608 Int'l Des: 1966-110 Owner: GSFC Country: US
MEOCIRCULAR

About ATS 1

Description loading...

Live Position

Loading 3D Globe...

Upcoming Passes

Altitude History

Altitude vs Time

uPlot chart will show altitude changes over time

Two-Line Element Set

1 02608U 66110A 26062.47054146 -.00000319 00000-0 00000-0 0 9991
2 02608 4.7081 70.9392 0007000 193.2930 201.0602 1.00333076133744
Epoch: Mar 3, 2026 • Age: 30 hours

Current Status

Altitude 35787.8 km
Velocity 3.07 km/s
Sub-Earth Point -2.91°S, 135°E
Type other

Large Constellations

Loading constellations...